Regional Weather Roundup
Issued by NWS

Home | Current Version | Previous Version | Text Only | Print | Product List | Glossary Off
Versions: 1 2 3 4 5 6 7 8 9 10 11 12 13 14 15 16 17 18 19 20 21 22 23 24 25 26 27 28 29 30 31 32 33 34 35 36 37 38 39 40 41 42 43 44 45 46 47 48 49 50

000
ASUS43 KDTX 232010
RWRMI
MICHIGAN HOURLY REGIONAL WEATHER ROUNDUP
NATIONAL WEATHER SERVICE DETROIT/PONTIAC MI
400 PM EDT TUE SEP 23 2014

NOTE: "FAIR" INDICATES FEW OR NO CLOUDS BELOW 12,000 FEET WITH NO
SIGNIFICANT WEATHER AND/OR OBSTRUCTION TO VISIBILITY.

MIZ047>049-052>055-059>063-066>070-074>076-081>083-232100-
SOUTHEAST LOWER MICHIGAN

CITY           SKY/WX    TMP DP  RH WIND       PRES   REMARKS
ADRIAN         SUNNY     71  47  42 N3        30.33F
ALMA           SUNNY     73  52  47 W5        30.31S
ANN ARBOR      SUNNY     71  48  43 VRB6      30.32S
BAD AXE        SUNNY     71  52  50 W9        30.31S
CARO           SUNNY     71  54  53 SW6       30.30F
DETROIT CITY   SUNNY     70  52  52 CALM      30.32F
DETROIT        SUNNY     69  50  50 S5        30.33F
FLINT          SUNNY     74  52  46 NW6       30.31F
GROSSE ILE     SUNNY     66  54  63 S9        30.32S
HILLSDALE      SUNNY     71  48  44 W5        30.33S
HOWELL         SUNNY     71  50  47 W5        30.32S

CITY           SKY/WX    TMP DP  RH WIND       PRES   REMARKS
JACKSON        SUNNY     71  49  45 CALM      30.32F
LAMBERTVILLE   SUNNY     70  45  40 CALM      30.33F
LANSING        SUNNY     73  50  44 NW8       30.32F
LAPEER         FAIR      70  51  49 W6        30.32S
MASON          SUNNY     71  51  50 W3        30.31F
MONROE         SUNNY     70  48  46 CALM      30.31F
MT. CLEMENS    MOSUNNY   69  51  52 SE10      30.30F
PONTIAC        MOSUNNY   70  50  49 CALM      30.32F
PORT HOPE        N/A     72  50  45 VRB7      30.29S
PORT HURON     SUNNY     68  54  60 S6        30.32S
TRI CITIES     SUNNY     73  52  47 W6        30.30F
TROY           SUNNY     72  47  40 NW6       30.33F
SAGINAW HB     SUNNY     73  50  43 W7        30.30S
$$
MIZ043>046-050>051-056>058-064>065-071>073-077>080-232100-
SOUTHWEST LOWER MICHIGAN

CITY           SKY/WX    TMP DP  RH WIND       PRES   REMARKS
BATTLE CREEK   SUNNY     72  50  45 W6        30.32F
BENTON HARBOR  SUNNY     66  48  52 W9        30.33F
BIG RAPIDS     MOSUNNY   72  56  57 CALM      30.29F
COLDWATER      SUNNY     72  49  44 W6        30.32F
FREMONT        FAIR      71  50  47 SW7       30.30S
HOLLAND        SUNNY     69  53  56 W12       30.34S
GRAND RAPIDS   MOSUNNY   72  55  55 VRB7      30.31F
IONIA          FAIR      73  52  48 W6        30.30F
KALAMAZOO      SUNNY     72  50  45 W5        30.32F
LUDINGTON      SUNNY     64  56  75 W8        30.32S
MARSHALL       SUNNY     71  51  48 SW6       30.31F
MOUNT PLEASANT SUNNY     74  52  47 W3        30.29F
MUSKEGON       MOSUNNY   66  52  60 SW8       30.32F
SOUTH HAVEN    SUNNY     67  52  59 W7        30.33F
$$
MIZ016>042-232100-
NORTHERN LOWER MICHIGAN

CITY           SKY/WX    TMP DP  RH WIND       PRES   REMARKS
ALPENA         PTSUNNY   70  56  61 E9        30.26S
BEAVER ISLAND  SUNNY     65  55  69 SW7       30.28S
BELLAIRE       SUNNY     73  54  50 W6        30.27F
CADILLAC       SUNNY     71  56  59 SW7       30.29S
CHARLEVOIX     SUNNY     68  56  65 W9        30.30F
FRANKFORT      SUNNY     68  53  59 SW7       30.30S
GAYLORD        SUNNY     70  53  54 W8        30.29S
GRAYLING       SUNNY     74  52  45 W3        30.29S
HARBOR SPRINGS SUNNY     70  55  58 W8        30.28R
HOUGHTON LAKE  SUNNY     72  53  51 SW7       30.29F
MANISTEE       SUNNY     70  52  52 W12       30.30F
OSCODA         SUNNY     75  53  46 W6        30.26S
PELLSTON       SUNNY     70  54  56 W13       30.28R
ROGERS CITY    SUNNY     63  57  82 N6        30.29R
TRAVERSE CITY  MOSUNNY   73  52  47 W8        30.27S
$$
MIZ007>008-015-232100-
EASTERN UPPER MICHIGAN

CITY           SKY/WX    TMP DP  RH WIND       PRES   REMARKS
KINROSS        PTSUNNY   73  55  53 SW3       30.25S
MACKINAC ISLAN SUNNY     64  56  76 SW12      30.27S
NEWBERRY       SUNNY     74  56  51 SW9       30.24S
S. S. MARIE    SUNNY     71  52  50 W6        30.24S
MUNISING         N/A     66  54  65 NE9       30.23F
$$
MIZ004>006-011>014-085-232100-
CENTRAL UPPER MICHIGAN

CITY           SKY/WX    TMP DP  RH WIND       PRES   REMARKS
MANISTIQUE     SUNNY     64  56  75 S8        30.26S
ESCANABA       SUNNY     70  55  60 S10       30.24F
MENOMINEE      SUNNY     72  55  56 S10G17    30.25S
SAWYER-GWINN   SUNNY     75  50  41 S3        30.23F
$$
MIZ001>003-009>011-084-232100-
WESTERN UPPER MICHIGAN

CITY           SKY/WX    TMP DP  RH WIND       PRES   REMARKS
IRON MOUNTAIN  SUNNY     76  51  41 SW5       30.23F
HOUGHTON       SUNNY     72  53  51 NW9       30.21F
COPPER HARBOR    N/A     59  50  72 CALM      30.22R
IRONWOOD       SUNNY     73  48  40 S8G16     30.18F
$$

ABBREVIATIONS USED IN REMARKS
   TC - TEMPERATURE IN CELSIUS
  WCI - WIND CHILL INDEX
   HX - HEAT INDEX
  VSB - VISIBILITY




USA.gov is the U.S. government's official web portal to all federal, state and local government web resources and services.